Date,TemperatureHighF,TemperatureAvgF,TemperatureLowF,DewpointHighF,DewpointAvgF,DewpointLowF,HumidityHigh,HumidityAvg,HumidityLow,PressureMaxIn,PressureMinIn,WindSpeedMaxMPH,WindSpeedAvgMPH,GustSpeedMaxMPH,PrecipitationSumIn
2013-2-1,-2.0,-10.7,-20.0,-18.1,-26.1,-34.8,45,45,45,29.32,29.09,0,0,0,0.00
2013-2-2,6.8,-2.7,-15.0,-10.0,-18.8,-30.1,45,45,45,29.23,29.00,0,0,0,0.00
2013-2-3,8.2,2.5,-3.8,-8.9,-14.0,-19.8,45,45,45,29.15,29.06,0,0,0,0.00
2013-2-4,18.0,6.8,-0.9,4.9,-9.7,-17.1,56,46,45,29.12,28.59,0,0,0,0.00
2013-2-5,25.5,9.9,1.9,14.3,-4.3,-12.0,62,52,51,29.09,28.61,14,3,15,0.00
2013-2-7,4.5,1.2,-0.4,-9.3,-12.3,-13.8,52,52,52,29.35,29.32,0,0,0,0.00
2013-2-8,26.8,16.7,4.8,7.8,0.9,-9.3,56,49,42,29.35,29.06,7,2,9,0.00
2013-2-9,30.4,25.8,20.7,19.7,13.4,4.8,69,59,49,29.06,28.91,6,1,6,0.00
2013-2-10,28.9,27.6,23.5,19.9,18.6,14.2,72,69,64,28.91,28.61,15,5,18,0.00
2013-2-11,23.5,19.3,15.1,14.2,4.6,-0.7,67,52,42,29.00,28.73,17,4,22,0.00
2013-2-12,31.3,20.9,10.0,15.4,6.0,-3.3,55,52,44,28.94,28.79,9,2,9,0.00
2013-2-13,29.3,22.9,16.5,11.9,7.3,3.6,58,51,42,28.82,28.64,6,0,8,0.00
2013-2-14,21.7,12.9,4.1,9.0,-5.7,-14.9,60,42,35,29.29,28.82,11,2,14,0.00
2013-2-15,15.4,3.9,-6.7,-5.4,-15.5,-24.7,40,39,37,29.41,29.26,4,0,4,0.00
2013-2-16,18.0,7.3,-9.4,1.3,-11.5,-28.1,50,41,37,29.26,28.97,9,1,9,0.00
2013-2-17,31.1,24.4,15.8,20.2,9.0,-0.4,65,51,41,28.97,28.53,10,5,10,0.00
2013-2-18,29.8,9.4,-3.6,20.1,-3.6,-16.8,68,55,52,29.18,28.53,18,6,24,0.00
2013-2-19,-3.6,-9.0,-13.0,-16.8,-21.9,-25.6,52,52,52,29.53,29.18,16,5,17,0.00
2013-2-20,4.6,-7.9,-19.5,-9.3,-20.9,-31.7,52,52,52,29.56,29.38,5,0,5,0.00
2013-2-21,23.2,6.1,-9.6,-0.4,-11.2,-22.4,52,45,34,29.44,29.23,6,0,6,0.00
2013-2-22,21.0,13.1,5.0,4.1,-4.6,-14.0,57,45,38,29.23,28.97,6,0,9,0.00
2013-2-23,21.6,15.3,6.1,5.8,1.8,-8.6,58,55,46,29.00,28.88,4,0,4,0.00
2013-2-24,24.4,14.7,3.2,8.2,-1.7,-11.2,55,48,38,29.06,29.00,5,0,5,0.00
2013-2-25,31.3,18.8,6.4,11.6,3.4,-6.4,67,51,34,29.09,29.03,9,2,9,0.00
2013-2-26,23.2,19.2,12.6,9.5,6.9,0.6,63,58,53,29.12,29.03,8,1,8,0.00
2013-2-27,31.1,18.7,7.0,11.9,3.8,-4.3,59,52,40,29.23,29.12,14,3,17,0.00
2013-2-28,27.7,22.4,16.9,6.9,4.3,-0.3,53,45,36,29.35,29.23,12,3,12,0.00